Tracking 19149 objects as of 20-Apr-2018
HD Live streaming from Space Station
objects crossing your sky now

CZ-4 DEB

Track CZ-4 DEB now!
10-day predictions


NORAD ID: 35376
Int'l Code: 2006-046J
Perigee: 584.7 km
Apogee: 863.3 km
Inclination: 97.8 °
Period: 99.1 minutes
Semi major axis: 7094 km
RCS: 0.0012 m2 (small)
Launch date: October 23, 2006
Source: People's Republic of China (PRC)
Launch site: Taiyaun Space Center, China (TSC)

Note: This is SATELLITE DEBRIS
aabbcc
Your satellite tracking list
Your tracking list is empty




NASA's NSSDC Master Catalog

Two Line Element Set (TLE):
1 35376U 06046J   18109.99853073  .00000593  00000-0  12212-3 0  9991
2 35376  97.7623 177.4400 0196327 227.4667 257.3438 14.52702023604216
Source of the keplerian elements: AFSPC